Find Kosmos-2474

NORAD ID: 37829 Int'l Des: 2011-055 Owner: KVR/IACG Country: RU Constellation: GLONASS operational
MEOCIRCULAR

現在のビュー

3D地球を読み込み中...

About Kosmos-2474

Kosmos-2474 (NORAD 37829) is a GLONASS constellation satellite launched Oct 2, 2011 by KVR/IACG of RU. It operates in MEO, CIRCULAR orbit with a mass of 1450.00 kg.

Kosmos-2474について

説明を読み込み中...

次回通過

Passes for default location (London). Set your location on the main map for personalized predictions.

高度履歴

Loading altitude history...

軌道要素

1 37829U 11055A 26192.19968906 -.00000021 00000-0 00000+0 0 9992
2 37829 65.3027 72.0739 0009912 244.9538 292.1068 2.13101179114962
Epoch: Jul 11, 2026 • Age: 76 hours

現在のステータス

高度 19162.7 km
遠地点 / 近地点 N/A
速度 3.95 km/s
衛星直下点 65.04°N, 103.91°E
打ち上げ日 Oct 2, 2011
運用期間 14.7 years
タイプ other

技術仕様

分類 Payload
質量 1450.00 kg
乾燥質量 1200.00 kg
総質量 1450.00 kg
長さ 4.00 m
直径 1.50 m
スパン 7.80 m
形状 Cyl + Ant + 2 Pan
製造者 RESH
バスタイプ Uragan
フェーズステータス In Orbit
所有者/国 KVR/IACG/RU

Most Searched